| time (UTC) | temp F | wind direction | speed MPH | gust MPH | rain 1hr in | rain 24hr in | rain mn in | humidity % | barometer mb |
| 20260504213004 | 72 | 229 | 7.0 | 13.0 | 0.00 | 0.00 | 0.00 | 53 | 1000.6 |
| 20260504212526 | 72 | 221 | 7.0 | 21.0 | 0.00 | 0.00 | 0.00 | 51 | 1000.6 |
| 20260504212004 | 72 | 228 | 6.0 | 16.0 | 0.00 | 0.00 | 0.00 | 51 | 1000.6 |
| 20260504211504 | 73 | 243 | 7.0 | 17.0 | 0.00 | 0.00 | 0.00 | 51 | 1000.6 |
| 20260504211025 | 73 | 234 | 7.0 | 19.0 | 0.00 | 0.00 | 0.00 | 51 | 1000.6 |
| 20260504210504 | 73 | 234 | 6.0 | 17.0 | 0.00 | 0.00 | 0.00 | 51 | 1000.5 |
| 20260504210005 | 74 | 249 | 6.0 | 13.0 | 0.00 | 0.00 | 0.00 | 52 | 1000.5 |
| 20260504205504 | 74 | 264 | 8.0 | 20.0 | 0.00 | 0.00 | 0.00 | 52 | 1000.5 |
| 20260504205004 | 74 | 266 | 7.0 | 20.0 | 0.00 | 0.00 | 0.00 | 51 | 1000.6 |
| 20260504204504 | 74 | 261 | 6.0 | 16.0 | 0.00 | 0.00 | 0.00 | 52 | 1000.6 |
| 20260504204025 | 73 | 250 | 7.0 | 21.0 | 0.00 | 0.00 | 0.00 | 51 | 1000.5 |
| 20260504203504 | 73 | 243 | 6.0 | 17.0 | 0.00 | 0.00 | 0.00 | 52 | 1000.6 |
| 20260504203026 | 73 | 234 | 6.0 | 15.0 | 0.00 | 0.00 | 0.00 | 55 | 1000.6 |
| 20260504202504 | 73 | 218 | 7.0 | 13.0 | 0.00 | 0.00 | 0.00 | 55 | 1000.7 |
| 20260504202004 | 72 | 211 | 6.0 | 16.0 | 0.00 | 0.00 | 0.00 | 56 | 1000.5 |
| 20260504201525 | 72 | 206 | 8.0 | 19.0 | 0.00 | 0.00 | 0.00 | 55 | 1000.6 |
| 20260504201004 | 72 | 211 | 9.0 | 24.0 | 0.00 | 0.00 | 0.00 | 56 | 1000.8 |
| 20260504200504 | 72 | 218 | 9.0 | 21.0 | 0.00 | 0.00 | 0.00 | 56 | 1000.8 |
| 20260504200005 | 72 | 227 | 7.0 | 16.0 | 0.00 | 0.00 | 0.00 | 56 | 1001.0 |
| 20260504195525 | 72 | 220 | 9.0 | 17.0 | 0.00 | 0.00 | 0.00 | 57 | 1000.9 |
| 20260504195004 | 72 | 214 | 10.0 | 27.0 | 0.00 | 0.00 | 0.00 | 57 | 1000.9 |
| 20260504194504 | 72 | 214 | 9.0 | 16.0 | 0.00 | 0.00 | 0.00 | 57 | 1001.1 |
| 20260504194004 | 72 | 212 | 10.0 | 21.0 | 0.00 | 0.00 | 0.00 | 58 | 1000.9 |
| 20260504193504 | 72 | 226 | 8.0 | 17.0 | 0.00 | 0.00 | 0.00 | 58 | 1001.0 |
| 20260504193004 | 72 | 225 | 9.0 | 17.0 | 0.00 | 0.00 | 0.00 | 37 | 1001.0 |
| 20260504192504 | 72 | 202 | 10.0 | 29.0 | 0.00 | 0.00 | 0.00 | 58 | 1001.1 |
| 20260504192025 | 72 | 201 | 9.0 | 20.0 | 0.00 | 0.00 | 0.00 | 58 | 1001.2 |
| 20260504191525 | 72 | 199 | 7.0 | 8.0 | 0.00 | 0.00 | 0.00 | 60 | 1001.2 |
| 20260504191004 | 72 | 217 | 7.0 | 20.0 | 0.00 | 0.00 | 0.00 | 60 | 1002.0 |
| 20260504190504 | 72 | 217 | 7.0 | 20.0 | 0.00 | 0.00 | 0.00 | 60 | 1002.0 |
| 20260504190004 | 72 | 217 | 7.0 | 20.0 | 0.00 | 0.00 | 0.00 | 60 | 1002.0 |
| 20260504185504 | 72 | 217 | 7.0 | 20.0 | 0.00 | 0.00 | 0.00 | 60 | 1002.0 |
| 20260504185004 | 72 | 217 | 7.0 | 20.0 | 0.00 | 0.00 | 0.00 | 60 | 1002.0 |
| 20260504184504 | 72 | 217 | 7.0 | 20.0 | 0.00 | 0.00 | 0.00 | 60 | 1002.0 |
| 20260504184025 | 72 | 217 | 7.0 | 20.0 | 0.00 | 0.00 | 0.00 | 60 | 1002.0 |
| 20260504183504 | 72 | 217 | 7.0 | 20.0 | 0.00 | 0.00 | 0.00 | 60 | 1002.0 |
| 20260504183025 | 72 | 217 | 7.0 | 20.0 | 0.00 | 0.00 | 0.00 | 60 | 1002.0 |
| 20260504182504 | 72 | 217 | 7.0 | 20.0 | 0.00 | 0.00 | 0.00 | 60 | 1002.0 |
| 20260504182005 | 72 | 217 | 7.0 | 20.0 | 0.00 | 0.00 | 0.00 | 60 | 1002.0 |
| 20260504181504 | 72 | 217 | 7.0 | 20.0 | 0.00 | 0.00 | 0.00 | 60 | 1002.0 |
| 20260504181004 | 72 | 221 | 7.0 | 20.0 | 0.00 | 0.00 | 0.00 | 60 | 1002.0 |
| 20260504180526 | 72 | 242 | 6.0 | 20.0 | 0.00 | 0.00 | 0.00 | 60 | 1002.0 |
| 20260504180004 | 72 | 227 | 5.0 | 17.0 | 0.00 | 0.00 | 0.00 | 60 | 1002.0 |
| 20260504175504 | 72 | 218 | 6.0 | 15.0 | 0.00 | 0.00 | 0.00 | 60 | 1002.0 |
| 20260504175004 | 72 | 217 | 7.0 | 11.0 | 0.00 | 0.00 | 0.00 | 61 | 1002.0 |
| 20260504174504 | 72 | 229 | 6.0 | 15.0 | 0.00 | 0.00 | 0.00 | 60 | 1002.1 |
| 20260504174025 | 72 | 255 | 6.0 | 17.0 | 0.00 | 0.00 | 0.00 | 60 | 1002.1 |
| 20260504173525 | 72 | 220 | 8.0 | 16.0 | 0.00 | 0.00 | 0.00 | 60 | 1002.2 |
| 20260504173004 | 72 | 211 | 8.0 | 21.0 | 0.00 | 0.00 | 0.00 | 59 | 1002.2 |
| 20260504172504 | 72 | 220 | 7.0 | 19.0 | 0.00 | 0.00 | 0.00 | 58 | 1002.1 |
| 20260504172004 | 72 | 214 | 7.0 | 21.0 | 0.00 | 0.00 | 0.00 | 57 | 1002.1 |
| 20260504171504 | 72 | 208 | 9.0 | 17.0 | 0.00 | 0.00 | 0.00 | 58 | 1002.1 |
| 20260504171004 | 72 | 211 | 8.0 | 23.0 | 0.00 | 0.00 | 0.00 | 57 | 1002.1 |
| 20260504170504 | 72 | 210 | 6.0 | 16.0 | 0.00 | 0.00 | 0.00 | 58 | 1002.4 |
| 20260504151025 | 67 | 250 | 5.0 | 16.0 | 0.00 | 0.00 | 0.00 | 64 | 1003.5 |
| 20260504150504 | 67 | 213 | 5.0 | 13.0 | 0.00 | 0.00 | 0.00 | 66 | 1003.5 |
| 20260504141004 | 63 | 236 | 4.0 | 13.0 | 0.00 | 0.00 | 0.00 | 67 | 1003.9 |
| 20260504140503 | 62 | 228 | 4.0 | 11.0 | 0.00 | 0.00 | 0.00 | 67 | 1003.9 |
| 20260504130504 | 57 | 291 | 4.0 | 12.0 | 0.00 | 0.00 | 0.00 | 72 | 1004.3 |
| 20260504110503 | 47 | 358 | 4.0 | 7.0 | 0.00 | 0.00 | 0.00 | 82 | 1004.5 |
| 20260504100525 | 47 | 360 | 3.0 | 8.0 | 0.00 | 0.00 | 0.00 | 81 | 1004.5 |
| 20260504082004 | 48 | 360 | 2.0 | 11.0 | 0.00 | 0.00 | 0.00 | 78 | 1004.9 |
| 20260504081504 | 48 | 360 | 2.0 | 5.0 | 0.00 | 0.00 | 0.00 | 78 | 1005.0 |
| 20260504081003 | 48 | 360 | 1.0 | 7.0 | 0.00 | 0.00 | 0.00 | 77 | 1005.0 |
| 20260504080503 | 48 | 360 | 2.0 | 5.0 | 0.00 | 0.00 | 0.00 | 77 | 1005.1 |
| 20260504050503 | 52 | 360 | 4.0 | 11.0 | 0.00 | 0.00 | 0.00 | 71 | 1007.2 |
| 20260504050004 | 52 | 360 | 4.0 | 8.0 | 0.00 | 0.00 | 0.00 | 71 | 1007.3 |
| 20260504045503 | 52 | 351 | 4.0 | 12.0 | 0.00 | 0.00 | 0.00 | 71 | 1007.3 |
| 20260504045003 | 52 | 328 | 5.0 | 8.0 | 0.00 | 0.00 | 0.00 | 71 | 1007.2 |
| 20260504044504 | 52 | 350 | 5.0 | 12.0 | 0.00 | 0.00 | 0.00 | 71 | 1007.3 |
| 20260504044027 | 52 | 360 | 4.0 | 12.0 | 0.00 | 0.00 | 0.00 | 71 | 1007.2 |
| 20260504043529 | 52 | 360 | 3.0 | 12.0 | 0.00 | 0.00 | 0.00 | 71 | 1007.3 |
| 20260504043003 | 52 | 360 | 2.0 | 7.0 | 0.00 | 0.00 | 0.00 | 71 | 1007.3 |
| 20260504042503 | 52 | 360 | 2.0 | 7.0 | 0.00 | 0.00 | 0.00 | 71 | 1007.3 |
| 20260504042007 | 52 | 360 | 2.0 | 5.0 | 0.00 | 0.00 | 0.00 | 71 | 1007.3 |
| 20260504041507 | 52 | 360 | 2.0 | 5.0 | 0.00 | 0.00 | 0.00 | 71 | 1007.4 |
| 20260504041028 | 52 | 360 | 3.0 | 7.0 | 0.00 | 0.00 | 0.00 | 71 | 1007.4 |
| 20260504040508 | 52 | 360 | 3.0 | 11.0 | 0.00 | 0.00 | 0.00 | 71 | 1007.4 |
| 20260504040007 | 53 | 360 | 3.0 | 11.0 | 0.00 | 0.00 | 0.00 | 71 | 1007.6 |
| 20260504035507 | 53 | 360 | 4.0 | 11.0 | 0.00 | 0.00 | 0.00 | 71 | 1007.6 |
| 20260504035007 | 53 | 360 | 4.0 | 15.0 | 0.00 | 0.00 | 0.00 | 71 | 1007.6 |
| 20260504034507 | 53 | 360 | 3.0 | 12.0 | 0.00 | 0.00 | 0.00 | 71 | 1007.7 |
| 20260504034007 | 53 | 360 | 3.0 | 8.0 | 0.00 | 0.00 | 0.00 | 70 | 1007.8 |
| 20260504033529 | 53 | 360 | 3.0 | 11.0 | 0.00 | 0.00 | 0.00 | 70 | 1007.8 |
| 20260504033029 | 54 | 360 | 4.0 | 8.0 | 0.00 | 0.00 | 0.00 | 70 | 1007.8 |
| 20260504032507 | 54 | 360 | 5.0 | 16.0 | 0.00 | 0.00 | 0.00 | 70 | 1007.9 |
| 20260504032007 | 54 | 360 | 4.0 | 16.0 | 0.00 | 0.00 | 0.00 | 70 | 1007.9 |
| 20260504031507 | 54 | 360 | 4.0 | 11.0 | 0.00 | 0.00 | 0.00 | 69 | 1008.0 |
| 20260504031007 | 54 | 360 | 5.0 | 16.0 | 0.00 | 0.00 | 0.00 | 69 | 1008.1 |
| 20260504030507 | 55 | 360 | 5.0 | 16.0 | 0.00 | 0.00 | 0.00 | 69 | 1008.1 |
| 20260504030007 | 55 | 360 | 6.0 | 17.0 | 0.00 | 0.00 | 0.00 | 69 | 1008.1 |
| 20260504025507 | 55 | 360 | 7.0 | 24.0 | 0.00 | 0.00 | 0.00 | 69 | 1008.1 |
| 20260504025028 | 55 | 360 | 7.0 | 19.0 | 0.00 | 0.00 | 0.00 | 69 | 1008.1 |
| 20260504024508 | 55 | 360 | 6.0 | 29.0 | 0.00 | 0.00 | 0.00 | 69 | 1008.1 |
| 20260504024007 | 55 | 360 | 6.0 | 19.0 | 0.00 | 0.00 | 0.00 | 69 | 1008.1 |
| 20260504023507 | 55 | 360 | 6.0 | 16.0 | 0.00 | 0.00 | 0.00 | 69 | 1008.0 |
| 20260504023007 | 55 | 360 | 5.0 | 20.0 | 0.00 | 0.00 | 0.00 | 68 | 1008.1 |
| 20260504022507 | 55 | 360 | 5.0 | 27.0 | 0.00 | 0.00 | 0.00 | 68 | 1008.1 |
| 20260504022007 | 55 | 360 | 5.0 | 15.0 | 0.00 | 0.00 | 0.00 | 67 | 1008.0 |
| 20260504021507 | 55 | 360 | 4.0 | 15.0 | 0.00 | 0.00 | 0.00 | 66 | 1008.1 |
| 20260504021007 | 55 | 360 | 4.0 | 15.0 | 0.00 | 0.00 | 0.00 | 66 | 1008.0 |
| 20260504020507 | 55 | 360 | 4.0 | 16.0 | 0.00 | 0.00 | 0.00 | 66 | 1008.0 |
| 20260504020007 | 55 | 360 | 3.0 | 17.0 | 0.00 | 0.00 | 0.00 | 64 | 1007.8 |
| 20260504015507 | 56 | 360 | 3.0 | 13.0 | 0.00 | 0.00 | 0.00 | 64 | 1007.9 |
| 20260504015007 | 56 | 360 | 2.0 | 5.0 | 0.00 | 0.00 | 0.00 | 63 | 1007.8 |
| 20260504014507 | 56 | 360 | 3.0 | 11.0 | 0.00 | 0.00 | 0.00 | 63 | 1007.8 |
| 20260504014007 | 56 | 360 | 3.0 | 13.0 | 0.00 | 0.00 | 0.00 | 63 | 1007.7 |
| 20260504013507 | 56 | 360 | 2.0 | 7.0 | 0.00 | 0.00 | 0.00 | 62 | 1007.7 |
| 20260504013007 | 56 | 360 | 2.0 | 8.0 | 0.00 | 0.00 | 0.00 | 62 | 1007.6 |
| 20260504012528 | 56 | 360 | 2.0 | 5.0 | 0.00 | 0.00 | 0.00 | 61 | 1007.5 |
| 20260504012007 | 57 | 360 | 2.0 | 11.0 | 0.00 | 0.00 | 0.00 | 61 | 1007.5 |
| 20260504011507 | 57 | 360 | 2.0 | 15.0 | 0.00 | 0.00 | 0.00 | 60 | 1007.4 |
| 20260504011007 | 57 | 360 | 2.0 | 8.0 | 0.00 | 0.00 | 0.00 | 60 | 1007.5 |
| 20260504010507 | 57 | 360 | 3.0 | 11.0 | 0.00 | 0.00 | 0.00 | 59 | 1007.4 |
| 20260504010007 | 57 | 360 | 4.0 | 12.0 | 0.00 | 0.00 | 0.00 | 59 | 1007.4 |
| 20260504005528 | 57 | 360 | 4.0 | 11.0 | 0.00 | 0.00 | 0.00 | 59 | 1007.4 |
| 20260504005007 | 57 | 360 | 4.0 | 12.0 | 0.00 | 0.00 | 0.00 | 58 | 1007.4 |
| 20260504004507 | 58 | 360 | 5.0 | 15.0 | 0.00 | 0.00 | 0.00 | 58 | 1007.3 |
| 20260504004007 | 58 | 360 | 5.0 | 17.0 | 0.00 | 0.00 | 0.00 | 58 | 1007.3 |
| 20260504003507 | 58 | 1 | 5.0 | 12.0 | 0.00 | 0.00 | 0.00 | 58 | 1007.3 |
| 20260504003007 | 58 | 1 | 4.0 | 15.0 | 0.00 | 0.00 | 0.00 | 58 | 1007.2 |
| 20260504002507 | 58 | 360 | 4.0 | 13.0 | 0.00 | 0.00 | 0.00 | 58 | 1007.2 |
| 20260504002007 | 58 | 360 | 5.0 | 15.0 | 0.00 | 0.00 | 0.00 | 58 | 1007.1 |
| 20260504001507 | 58 | 360 | 6.0 | 17.0 | 0.00 | 0.00 | 0.00 | 57 | 1007.0 |
| 20260504001007 | 58 | 360 | 5.0 | 16.0 | 0.00 | 0.00 | 0.00 | 57 | 1007.0 |
| 20260504000507 | 58 | 360 | 4.0 | 16.0 | 0.00 | 0.00 | 0.00 | 57 | 1007.0 |
| 20260504000007 | 59 | 360 | 5.0 | 15.0 | 0.00 | 0.00 | 0.00 | 57 | 1007.0 |
| 20260503235507 | 59 | 360 | 6.0 | 13.0 | 0.00 | 0.00 | 0.00 | 57 | 1007.1 |
| 20260503235007 | 59 | 360 | 4.0 | 17.0 | 0.00 | 0.00 | 0.00 | 57 | 1007.2 |
| 20260503234507 | 59 | 360 | 5.0 | 16.0 | 0.00 | 0.00 | 0.00 | 57 | 1007.1 |
| 20260503234007 | 59 | 360 | 7.0 | 20.0 | 0.00 | 0.00 | 0.00 | 56 | 1007.2 |
| 20260503233529 | 59 | 360 | 7.0 | 15.0 | 0.00 | 0.00 | 0.00 | 56 | 1007.2 |
| 20260503233007 | 59 | 360 | 7.0 | 23.0 | 0.00 | 0.00 | 0.00 | 56 | 1007.1 |
| 20260503232507 | 60 | 360 | 7.0 | 19.0 | 0.00 | 0.00 | 0.00 | 55 | 1007.2 |
| 20260503232007 | 60 | 360 | 8.0 | 20.0 | 0.00 | 0.00 | 0.00 | 55 | 1007.2 |
| 20260503231507 | 60 | 360 | 7.0 | 19.0 | 0.00 | 0.00 | 0.00 | 55 | 1007.1 |
| 20260503231006 | 60 | 360 | 6.0 | 16.0 | 0.00 | 0.00 | 0.00 | 55 | 1007.1 |
| 20260503230507 | 60 | 360 | 6.0 | 16.0 | 0.00 | 0.00 | 0.00 | 55 | 1007.2 |
| 20260503230028 | 60 | 360 | 7.0 | 23.0 | 0.00 | 0.00 | 0.00 | 53 | 1007.3 |
| 20260503225528 | 60 | 360 | 5.0 | 29.0 | 0.00 | 0.00 | 0.00 | 55 | 1007.4 |
| 20260503225007 | 60 | 360 | 5.0 | 13.0 | 0.00 | 0.00 | 0.00 | 55 | 1007.3 |
| 20260503224507 | 60 | 360 | 7.0 | 21.0 | 0.00 | 0.00 | 0.00 | 53 | 1007.3 |
| 20260503224007 | 60 | 360 | 6.0 | 24.0 | 0.00 | 0.00 | 0.00 | 53 | 1007.4 |
| 20260503223507 | 60 | 360 | 8.0 | 29.0 | 0.00 | 0.00 | 0.00 | 53 | 1007.5 |
| 20260503223007 | 60 | 360 | 11.0 | 27.0 | 0.00 | 0.00 | 0.00 | 52 | 1007.5 |
| 20260503222506 | 60 | 360 | 9.0 | 29.0 | 0.00 | 0.00 | 0.00 | 53 | 1007.5 |
| 20260503222007 | 60 | 360 | 8.0 | 23.0 | 0.00 | 0.00 | 0.00 | 53 | 1007.6 |
| 20260503221507 | 60 | 360 | 7.0 | 20.0 | 0.00 | 0.00 | 0.00 | 53 | 1007.5 |
| 20260503221007 | 60 | 360 | 7.0 | 19.0 | 0.00 | 0.00 | 0.00 | 53 | 1007.5 |
| 20260503220507 | 60 | 360 | 7.0 | 21.0 | 0.00 | 0.00 | 0.00 | 55 | 1007.6 |
| 20260503220007 | 60 | 360 | 7.0 | 21.0 | 0.00 | 0.00 | 0.00 | 53 | 1007.6 |
| 20260503215507 | 60 | 360 | 8.0 | 19.0 | 0.00 | 0.00 | 0.00 | 53 | 1007.6 |
| 20260503215007 | 60 | 360 | 8.0 | 28.0 | 0.00 | 0.00 | 0.00 | 53 | 1007.6 |
| 20260503214507 | 59 | 360 | 6.0 | 24.0 | 0.00 | 0.00 | 0.00 | 53 | 1007.7 |
| 20260503214007 | 59 | 360 | 5.0 | 15.0 | 0.00 | 0.00 | 0.00 | 55 | 1007.8 |
| 20260503213507 | 59 | 360 | 6.0 | 21.0 | 0.00 | 0.00 | 0.00 | 53 | 1007.7 |